Precipitable_Water
0.60 0.64 0.67 0.74 0.81 0.85 0.83 0.88 0.84 0.89 0.88 0.87 0.87 0.88 0.89 0.92 0.94 0.94 0.92 0.92 0.89 0.85 0.86 0.84 0.83 0.89 0.90 0.94 0.97 0.97 0.92 0.89 0.79 0.86 0.87 0.86 0.80 0.78 0.77 0.80 0.90 0.91 0.85
0.62 0.65 0.68 0.72 0.76 0.80 0.82 0.85 0.90 0.90 0.93 0.94 0.91 0.92 0.87 0.87 0.90 0.89 0.87 0.89 0.85 0.83 0.83 0.87 0.88 0.96 0.97 1.02 1.04 1.00 0.97 0.98 0.92 0.86 0.91 0.92 0.94 0.95 0.94 0.83 0.76 0.75 0.78
0.63 0.65 0.68 0.68 0.72 0.77 0.83 0.88 0.89 0.92 0.90 0.95 0.99 0.90 0.89 0.88 0.88 0.90 0.89 0.88 0.88 0.89 0.91 0.92 0.93 0.96 0.96 0.97 1.00 1.02 1.05 1.03 1.02 0.95 0.91 0.94 0.95 0.99 0.99 0.98 0.89 0.82 0.79
0.59 0.63 0.65 0.67 0.68 0.77 0.83 0.88 0.91 0.92 0.93 0.93 1.00 0.90 0.89 0.87 0.87 0.86 0.87 0.85 0.88 0.93 1.00 1.06 1.06 1.04 1.01 1.02 1.03 1.05 1.08 1.05 1.05 0.99 0.96 0.93 0.93 0.97 0.97 0.92 0.89 0.88 0.79
0.55 0.55 0.56 0.67 0.71 0.77 0.82 0.88 0.89 0.89 0.89 0.98 0.90 0.90 0.88 0.87 0.87 0.86 0.88 0.90 0.92 0.98 1.02 1.02 1.03 1.06 1.05 1.09 1.11 1.09 1.08 1.03 1.03 0.98 0.92 0.90 0.89 0.90 0.86 0.95 0.90 0.89 0.81
0.52 0.52 0.56 0.63 0.71 0.72 0.79 0.83 0.86 0.87 0.87 0.88 0.86 0.86 0.85 0.86 0.88 0.89 0.91 0.92 0.94 0.92 0.87 0.96 1.01 1.09 1.09 1.11 1.09 1.10 1.05 0.98 0.92 0.94 0.93 0.89 0.89 0.94 0.97 0.98 0.95 0.87 0.75
0.49 0.55 0.58 0.60 0.65 0.73 0.73 0.82 0.81 0.85 0.88 0.86 0.84 0.84 0.80 0.82 0.86 0.88 0.87 0.87 0.85 0.86 0.91 0.94 0.96 0.99 1.01 1.01 1.02 1.06 1.06 1.07 1.06 1.03 0.95 0.94 0.94 0.97 0.97 0.94 0.94 0.93 0.81
0.43 0.48 0.61 0.64 0.66 0.71 0.76 0.79 0.82 0.83 0.85 0.86 0.86 0.83 0.81 0.84 0.84 0.85 0.88 0.89 0.88 0.88 0.90 0.89 0.91 0.94 0.99 0.98 0.97 0.95 1.02 1.07 1.03 1.01 1.00 1.00 0.98 0.97 0.98 0.93 0.95 1.00 0.92
0.43 0.42 0.48 0.57 0.65 0.67 0.70 0.75 0.76 0.76 0.82 0.90 0.90 0.86 0.84 0.82 0.87 0.88 0.89 0.88 0.85 0.82 0.87 0.89 0.91 0.94 0.95 0.95 0.95 0.96 0.95 0.98 1.06 1.04 1.01 1.01 0.97 0.94 1.00 0.97 0.92 0.90 0.81
0.45 0.47 0.45 0.46 0.56 0.67 0.68 0.69 0.73 0.76 0.77 0.81 0.85 0.88 0.88 0.83 0.87 0.87 0.88 0.87 0.84 0.83 0.84 0.89 0.91 0.93 0.96 0.95 0.90 0.90 0.87 0.89 0.93 0.95 0.92 0.94 0.96 0.99 1.03 1.01 0.93 0.83 0.77
0.43 0.46 0.50 0.49 0.46 0.58 0.65 0.71 0.71 0.74 0.82 0.85 0.89 0.88 0.90 0.92 0.89 0.88 0.88 0.83 0.81 0.82 0.83 0.84 0.90 0.92 0.93 0.94 0.95 0.93 0.87 0.88 0.86 0.86 0.88 0.86 0.84 0.90 0.95 0.98 0.97 0.86 0.72
0.38 0.42 0.46 0.51 0.52 0.49 0.58 0.68 0.74 0.73 0.74 0.77 0.81 0.86 0.92 0.95 0.95 0.94 0.90 0.89 0.90 0.80 0.79 0.85 0.91 0.92 0.94 0.94 0.94 0.91 0.91 0.90 0.87 0.85 0.84 0.82 0.81 0.85 0.92 0.91 0.90 0.87 0.85
0.35 0.36 0.41 0.45 0.52 0.56 0.51 0.61 0.68 0.73 0.73 0.73 0.76 0.81 0.85 0.92 0.93 0.95 0.93 0.91 0.94 0.90 0.87 0.85 0.88 0.91 0.95 0.97 0.95 0.94 0.88 0.88 0.79 0.77 0.77 0.77 0.80 0.83 0.86 0.88 0.87 0.84 0.84
0.31 0.33 0.36 0.39 0.44 0.50 0.57 0.55 0.59 0.65 0.64 0.70 0.72 0.70 0.75 0.79 0.84 0.92 0.93 0.93 0.95 0.92 0.93 0.91 0.87 0.90 0.93 0.92 0.93 0.93 0.88 0.82 0.74 0.71 0.71 0.73 0.75 0.75 0.74 0.78 0.78 0.81 0.83
0.27 0.28 0.31 0.35 0.38 0.42 0.48 0.56 0.55 0.59 0.64 0.62 0.64 0.68 0.64 0.65 0.77 0.87 0.91 0.94 0.93 0.94 0.91 0.91 0.85 0.82 0.80 0.83 0.85 0.85 0.81 0.78 0.71 0.71 0.70 0.69 0.70 0.72 0.73 0.81 0.85 0.88 0.85
0.23 0.25 0.28 0.30 0.33 0.37 0.42 0.47 0.58 0.60 0.58 0.63 0.66 0.64 0.64 0.67 0.73 0.79 0.84 0.90 0.91 0.92 0.91 0.85 0.83 0.81 0.79 0.78 0.79 0.77 0.79 0.78 0.76 0.76 0.76 0.74 0.75 0.77 0.81 0.85 0.88 0.85 0.82
0.22 0.22 0.24 0.27 0.29 0.31 0.34 0.41 0.45 0.52 0.60 0.60 0.63 0.65 0.65 0.65 0.71 0.75 0.81 0.86 0.88 0.88 0.81 0.82 0.83 0.83 0.84 0.81 0.79 0.78 0.77 0.81 0.85 0.82 0.83 0.84 0.83 0.86 0.85 0.82 0.82 0.82 0.79
0.21 0.22 0.22 0.22 0.24 0.28 0.30 0.33 0.38 0.46 0.47 0.51 0.61 0.63 0.65 0.64 0.67 0.72 0.79 0.80 0.75 0.81 0.80 0.81 0.82 0.85 0.85 0.86 0.87 0.86 0.82 0.83 0.85 0.87 0.87 0.85 0.85 0.84 0.81 0.79 0.79 0.78 0.77
0.19 0.20 0.22 0.22 0.22 0.23 0.27 0.30 0.32 0.37 0.45 0.46 0.54 0.60 0.62 0.64 0.63 0.69 0.73 0.69 0.71 0.75 0.79 0.82 0.83 0.85 0.85 0.85 0.87 0.86 0.85 0.85 0.84 0.85 0.84 0.82 0.80 0.79 0.78 0.78 0.75 0.73 0.70
0.18 0.20 0.21 0.20 0.21 0.22 0.23 0.25 0.29 0.32 0.39 0.41 0.43 0.50 0.56 0.58 0.59 0.60 0.62 0.67 0.71 0.73 0.77 0.81 0.83 0.83 0.82 0.84 0.84 0.83 0.82 0.81 0.81 0.81 0.81 0.80 0.77 0.76 0.72 0.71 0.68 0.63 0.60
0.17 0.19 0.20 0.19 0.20 0.21 0.22 0.22 0.25 0.27 0.32 0.37 0.40 0.44 0.51 0.54 0.55 0.59 0.60 0.66 0.69 0.69 0.76 0.78 0.80 0.80 0.81 0.81 0.81 0.80 0.79 0.77 0.77 0.77 0.76 0.74 0.72 0.69 0.68 0.65 0.61 0.57 0.53
0.13 0.17 0.18 0.19 0.19 0.20 0.21 0.22 0.23 0.25 0.26 0.29 0.35 0.40 0.45 0.48 0.51 0.55 0.58 0.60 0.65 0.70 0.74 0.75 0.76 0.76 0.79 0.79 0.78 0.76 0.75 0.72 0.68 0.67 0.67 0.66 0.64 0.61 0.58 0.55 0.52 0.49 0.47
0.11 0.14 0.18 0.18 0.19 0.20 0.20 0.21 0.22 0.23 0.24 0.25 0.28 0.35 0.38 0.43 0.46 0.49 0.52 0.56 0.60 0.63 0.68 0.71 0.71 0.73 0.74 0.75 0.75 0.72 0.68 0.64 0.65 0.64 0.60 0.58 0.57 0.55 0.53 0.50 0.47 0.42 0.36
0.10 0.10 0.15 0.18 0.18 0.18 0.19 0.19 0.21 0.22 0.23 0.23 0.25 0.28 0.33 0.38 0.43 0.46 0.50 0.53 0.55 0.59 0.64 0.64 0.65 0.67 0.69 0.70 0.69 0.67 0.65 0.63 0.62 0.60 0.58 0.54 0.52 0.49 0.46 0.42 0.35 0.30 0.26
0.10 0.09 0.10 0.15 0.18 0.18 0.18 0.19 0.20 0.21 0.22 0.22 0.23 0.25 0.29 0.33 0.38 0.42 0.45 0.49 0.50 0.53 0.55 0.57 0.59 0.59 0.62 0.64 0.65 0.62 0.60 0.59 0.57 0.57 0.55 0.52 0.46 0.41 0.36 0.31 0.26 0.23 0.22
0.12 0.10 0.09 0.11 0.16 0.18 0.18 0.19 0.20 0.20 0.21 0.22 0.23 0.24 0.26 0.30 0.33 0.38 0.41 0.43 0.46 0.47 0.49 0.51 0.53 0.53 0.55 0.57 0.58 0.59 0.58 0.56 0.55 0.52 0.47 0.40 0.34 0.30 0.28 0.24 0.22 0.21 0.21
Wind_Speed
34 35 36 37 37 38 39 39 39 38 39 38 37 36 35 36 36 36 35 35 35 35 34 34 34 33 33 33 33 33 33 33 32 31 31 30 29 29 29 30 33 34 34
34 35 35 36 37 38 39 38 37 38 37 38 37 36 35 35 35 35 35 35 35 34 34 34 34 33 34 34 34 34 34 34 34 33 32 32 32 31 30 30 30 31 33
32 32 33 33 34 35 36 37 38 35 35 36 36 36 35 35 35 35 35 35 35 35 35 35 35 35 36 36 36 36 36 36 35 34 34 33 32 31 32 32 32 31 32
33 32 32 32 32 33 34 35 36 37 36 36 36 35 36 36 36 36 36 35 35 35 35 35 36 36 37 37 37 37 36 36 36 35 34 33 32 32 32 32 32 32 32
33 34 33 34 33 33 33 33 34 36 37 39 38 38 37 37 37 36 36 36 36 36 36 36 36 37 36 37 35 35 35 36 35 36 34 33 34 33 32 32 32 32 32
34 35 35 34 33 33 32 33 34 36 36 36 37 37 37 37 37 36 36 36 36 36 35 35 35 33 34 34 35 35 34 33 34 34 33 33 33 33 32 32 31 30 30
32 32 34 35 35 35 34 34 34 36 37 38 37 38 38 37 37 37 37 36 36 35 34 34 33 32 33 33 33 33 33 31 31 30 31 33 33 33 33 34 34 33 33
31 32 30 30 34 35 33 34 34 36 38 38 38 37 37 36 36 35 35 35 34 33 33 33 31 31 30 30 29 30 30 29 30 29 30 32 32 33 34 34 34 33 32
31 32 34 34 35 35 35 34 35 36 37 37 38 37 37 36 35 35 35 35 35 34 34 33 32 32 31 31 30 29 29 30 30 30 30 31 31 32 32 31 31 31 30
32 32 32 34 36 35 34 34 36 36 37 39 39 39 38 37 36 35 35 35 35 35 34 34 34 32 32 31 31 31 30 29 29 29 27 27 28 28 28 29 29 27 26
31 32 33 32 33 35 34 35 33 35 35 34 37 38 39 38 38 37 36 35 35 35 35 35 35 35 34 32 32 31 30 29 28 28 27 26 26 26 26 25 27 27 25
30 31 31 33 33 33 33 32 31 33 34 35 33 35 37 38 38 39 38 37 36 35 35 35 34 35 35 34 33 32 30 29 28 27 27 26 25 25 24 24 25 25 25
27 29 30 31 32 33 32 32 34 31 31 33 34 33 33 33 36 36 38 38 37 36 35 34 35 36 36 35 35 34 32 31 30 28 28 27 27 26 24 24 23 24 23
26 26 28 30 31 31 34 34 34 33 34 33 33 35 35 36 36 36 37 38 37 36 36 35 34 34 36 35 35 35 34 32 31 30 28 27 25 26 25 25 24 24 24
26 27 27 28 30 32 34 35 35 35 35 35 37 37 36 36 36 36 36 36 36 37 35 35 35 34 35 35 35 35 34 33 32 31 30 28 26 25 25 25 26 26 24
26 26 27 28 29 31 33 34 35 35 35 35 35 36 37 37 37 38 38 37 37 36 37 36 36 35 34 34 34 33 34 33 33 31 30 29 27 27 27 26 25 24 23
26 27 27 28 29 31 31 33 36 36 36 36 35 34 34 36 36 36 37 36 37 37 37 38 36 35 35 34 34 33 33 32 33 32 31 30 28 26 26 25 24 23 22
27 28 28 28 29 30 31 32 33 36 37 36 35 34 33 33 35 34 34 35 34 35 36 36 36 36 35 34 34 34 34 33 32 31 29 28 28 26 24 23 24 24 23
29 30 30 30 30 31 31 32 32 34 35 37 36 35 33 31 31 31 33 32 33 34 32 35 36 36 35 34 33 32 32 32 30 30 29 27 28 26 25 25 23 22 21
30 31 31 31 32 32 32 32 33 33 34 33 34 35 35 35 33 32 32 31 31 31 30 28 28 31 32 32 33 31 29 29 28 28 28 27 26 25 25 24 24 23 22
27 29 31 32 33 33 32 32 33 33 33 34 35 34 33 35 35 34 33 32 31 31 31 29 28 23 28 30 30 29 27 26 27 27 27 27 27 25 25 25 24 22 22
21 23 25 27 29 30 32 32 33 33 33 34 35 35 35 35 34 34 34 33 33 30 30 30 30 28 28 29 29 29 27 26 27 28 27 26 25 25 25 24 23 23 22
20 19 20 21 23 26 28 30 31 33 34 34 35 35 35 35 35 34 33 33 32 33 32 32 32 32 31 31 31 29 28 29 28 27 26 26 26 25 25 24 23 22 21
21 21 20 19 19 20 23 25 27 30 33 33 34 34 34 34 34 34 33 33 32 32 32 31 30 29 31 33 32 30 29 29 28 27 27 26 24 24 24 24 23 22 22
21 21 21 21 20 19 19 20 22 25 28 30 33 34 34 34 34 33 33 34 32 32 34 34 30 28 28 29 30 30 30 29 29 28 27 26 25 24 24 23 24 23 22
22 22 22 22 21 20 20 20 20 21 23 26 30 33 35 34 34 33 32 33 34 33 33 33 33 32 31 30 29 30 31 30 30 29 28 26 26 25 24 24 24 24 24
Wind_Direction
247 247 247 247 248 247 247 247 248 246 245 244 243 243 244 244 245 245 245 245 246 248 249 250 250 250 250 251 251 251 253 255 258 261 260 259 262 262 262 260 257 256 256
249 248 248 248 249 249 247 246 246 243 243 240 240 241 243 243 244 244 244 245 246 247 248 248 249 249 250 251 252 253 255 256 258 259 259 260 261 262 262 261 260 259 257
248 248 248 248 248 249 246 244 242 242 240 238 238 240 242 243 244 244 245 246 247 248 248 249 250 250 251 252 253 254 256 257 257 259 259 260 260 262 261 261 260 261 260
247 247 247 248 249 247 245 243 240 239 239 238 237 240 242 244 245 245 246 247 247 248 249 250 251 252 253 254 254 255 256 257 257 257 257 257 258 261 262 261 261 260 260
247 248 248 249 246 246 244 243 241 240 239 239 241 242 243 244 245 245 245 246 248 249 251 252 253 253 255 253 252 253 254 256 255 256 256 257 257 259 262 260 260 260 259
248 248 247 246 247 246 244 243 241 240 239 239 239 241 243 244 245 244 245 247 248 250 251 251 253 251 251 252 253 252 255 253 255 253 253 255 258 259 260 257 259 261 260
247 248 246 245 246 245 246 243 243 241 240 240 241 242 243 243 243 244 245 247 248 249 250 250 251 252 249 253 252 251 251 252 254 253 253 255 258 259 259 257 259 259 260
246 245 244 244 243 243 245 244 244 243 241 240 241 242 242 242 242 243 244 245 246 248 248 249 249 248 248 250 250 250 249 249 252 255 256 257 260 261 259 260 256 257 258
246 245 245 246 245 248 247 245 245 245 243 240 240 240 240 240 241 242 244 245 246 247 247 247 248 249 249 246 248 247 249 252 254 255 258 260 260 260 257 259 255 254 254
247 247 247 247 245 245 246 247 244 245 244 241 241 240 240 240 241 243 244 246 246 246 249 247 247 246 245 245 247 247 248 251 253 254 256 259 259 256 255 255 253 247 249
249 247 246 247 245 244 245 245 246 242 239 242 240 240 240 240 241 242 244 245 246 247 248 247 246 245 245 245 246 244 246 250 251 252 253 256 255 256 257 254 245 245 243
250 248 247 246 245 244 244 241 241 243 240 242 242 241 240 240 242 243 243 244 246 248 247 246 246 243 242 243 245 244 245 247 249 249 249 251 251 253 253 250 246 244 244
253 250 248 247 245 243 243 241 241 242 241 239 240 240 241 241 242 245 244 244 245 247 247 247 245 244 242 242 243 242 243 245 246 245 247 249 250 251 249 245 245 241 243
253 251 249 247 246 244 243 241 241 241 241 241 242 242 244 245 245 245 245 245 244 246 246 245 245 244 242 242 242 242 243 243 243 243 245 246 246 246 245 243 242 241 243
254 254 253 250 249 246 244 242 242 242 242 243 243 245 246 246 245 245 244 243 243 244 243 242 244 242 242 240 240 240 240 240 240 241 242 242 241 240 240 240 242 244 242
258 255 255 254 253 250 247 245 243 243 243 244 245 245 245 246 247 246 245 244 244 244 241 241 241 241 240 238 237 237 238 237 238 238 239 239 238 238 241 239 238 236 235
257 257 256 256 254 253 251 248 246 246 245 245 245 247 247 247 246 245 244 243 243 241 242 240 240 239 237 237 236 235 235 235 237 237 235 235 234 231 231 234 230 230 230
257 258 256 256 257 254 252 251 249 246 244 245 245 246 247 248 245 244 242 241 242 240 240 239 238 238 235 237 236 234 234 234 234 231 229 226 229 225 222 225 227 227 230
260 258 257 256 256 255 254 253 251 249 245 244 244 243 245 246 243 242 241 242 241 240 241 239 236 235 235 233 230 229 228 226 228 223 221 220 220 223 224 224 225 225 229
261 260 259 258 257 255 254 254 251 249 245 244 243 244 244 244 243 243 242 240 239 236 235 231 226 229 230 224 218 221 221 222 221 216 216 218 217 218 220 224 228 229 234
263 261 261 259 256 255 254 253 251 248 246 244 243 244 245 243 242 242 241 238 237 235 229 226 226 224 216 211 208 208 206 213 212 212 213 216 219 222 225 227 229 231 234
269 265 262 259 258 255 254 252 250 250 247 245 245 244 245 243 240 240 239 237 234 232 228 224 217 216 211 205 207 208 211 213 214 215 216 218 221 224 226 229 231 233 237
270 268 266 265 261 258 254 252 250 249 248 246 244 244 243 239 237 236 235 235 232 228 226 221 219 219 220 217 216 217 217 217 217 217 218 221 225 228 230 231 231 235 237
268 266 265 266 266 262 259 256 253 251 249 246 243 241 237 235 234 233 232 230 227 224 217 213 217 219 217 217 217 218 217 218 219 223 224 226 228 229 230 229 231 235 239
266 264 262 262 264 265 264 261 258 255 251 247 241 237 234 233 230 230 228 225 223 220 216 216 216 216 214 215 216 218 220 221 223 225 228 229 230 230 230 231 234 238 242
265 263 260 260 260 261 263 262 261 261 257 250 241 235 232 229 226 225 223 222 219 218 216 217 218 220 222 222 222 223 223 224 225 226 226 226 228 229 233 235 237 241 244